Location: Colle Santa Colomba
(42.0333°N, 12.5667°E)
Time: 03:04:02
(UTC+00:00)

Landsat 5 - Pass Details

Date: 25 October 2021
Orbit: 528 x 652 km, 98.2° (Epoch: 28 November)

Event Time Altitude Azimuth Distance (km) Brightness Sun altitude
Rises 17:25:36 0° 12° (NNE) 2,940 6.9 -14.1°
Reaches altitude 10° 17:27:47 10° 12° (NNE) 2,040 6.1 -14.5°
Maximum altitude 17:32:15 83° 286° (WNW) 658 3.7 -15.3°
Drops below altitude 10° 17:36:45 10° 197° (SSW) 2,052 6.5 -16.2°
Sets 17:38:58 0° 197° (SSW) 2,958 7.3 -16.6°
